Palmese

La Palmese cede il passo al F.C. Messina

Partita per pochi intimi (da segnalare la presenza del Gruppo Totalitario Palmese '93) quella giocata oggi al Giuseppe Lopresti tra la Palmese e il F.C. Messina. A passare il turno di coppa sono i siciliani che,...

Palmese-F.C. Messina apre il sipario sulla stagione dei neroverdi

Finalmente ci siamo. Domani alle ore 18:30, presso il campo sportivo Giuseppe Lopresti, si aprirà il sipario sulla stagione 2019-20 della Palmese che sarà impegnata nel turno preliminare di Coppa Italia Serie D. A sfidare...

Palmese, c’è un gradito ritorno in difesa

"Chi si ferma è perduto", sembra il motto della Palmese, che non si ferma neanche a Ferragosto e mette a segno un altro colpo in entrata. Si tratta del difensore Santino Misale, classe 1995. Dopo...

Coppa Italia 1938-39, l’unica edizione alla quale prese parte la Palmese

Le uniche squadre calabresi ad aver partecipato alla Coppa Italia (nazionale), oltre a Catanzaro (che nel 1965-66, raggiunta la finale, si arrese alla Fiorentina 2-1 d.t.s.), Cosenza, Crotone e Reggina, sono state: Palmese, Juventus...

Palmese, due giovani in arrivo dalla Vibonese

La Palmese ha ufficializzato l'accordo con la Vibonese del prestito di due ragazzi classe 2001. Si tratta di Vincenzo Occhiuto e Raffaele Buonocore, i quali faranno parte della rosa che affronterà il prossimo campionato di...

La Palmese ufficializza due assi in entrata

Mercato in grande fermento quello della Palmese. La società neroverde infatti si è assicurata le prestazioni sportive, per la prossima stagione in Serie D di Antonio Granata, difensore, classe 1997 e del centrocampista, classe 1993, Angelo...

Serie D, ecco le prime tre giornate del campionato 2019/2020

La  Lnd ha appena reso noti i calendari del campionato di Serie D 2019/2020. La stagione prenderà il via ufficialmente l'1 settembre 2019. Due casalinghe ed una trasferta per le reggine nella prima di campionato. Ecco il...

La Palmese batte due giovani colpi

Due nuovi innesti in casa Palmese, che vanno a rafforzare il roster a disposizione del tecnico Dal Torrione. La società si è infatti assicurata, per la prossima stagione di Serie D, le prestazioni sportive del...

Palmese, le avversarie nel campionato di Serie D 2019-2020

Ieri pomeriggio è stata diramata la composizione dei nove gironi del campionato di Serie D 2019-20 (sono 166 le squadre che ne faranno parte) e la grande attesa ha trovato conferma, il Palermo (il...

Palmese, il 18 agosto l’esordio ufficiale in coppa

Sarà domenica 18 agosto (quindi non il 25) il giorno dell’esordio ufficiale della Palmese edizione 2019-20. A sfidare i neroverdi al Giuseppe Lopresti, nella gara valevole per il turno preliminare di Coppa Italia Serie D,...

Palmese, chiuso il primo giorno di preparazione

Agli ordini di Mario Dal Torrione e dei suoi più stretti collaboratori (Enzo De Francia preparatore dei portieri e Antonino Ollio preparatore atletico) ieri pomeriggio, nella consueta cornice del Giuseppe Lopresti, è scattata la...

Palmese, al via la preparazione

Tempo di ritiro in casa Palmese. E’ fissato, infatti, per oggi pomeriggio alle ore 17:00 presso il Giuseppe Lopresti il raduno dei neroverdi di Mario Dal Torrione che, ai nove under già in rosa...
DataCasaRisultatiTrasfertaOra
2019-05-05 15:00:0005/05/2019 - 15:002 - 0 15:00:0015:00
2019-04-28 15:00:0028/04/2019 - 15:002 - 1 15:00:0015:00
2019-04-18 15:00:0018/04/2019 - 15:001 - 0 15:00:0015:00
2019-04-14 15:00:0014/04/2019 - 15:003 - 3 15:00:0015:00
2019-04-07 15:00:0007/04/2019 - 15:003 - 2 15:00:0015:00
2019-03-31 15:00:0031/03/2019 - 15:002 - 0 15:00:0015:00
2019-03-24 14:30:0024/03/2019 - 14:300 - 0 14:30:0014:30
2019-03-17 14:30:0017/03/2019 - 14:302 - 0 14:30:0014:30
2019-03-03 14:30:0003/03/2019 - 14:301 - 0 14:30:0014:30
2019-02-24 14:30:0024/02/2019 - 14:301 - 1 14:30:0014:30
2019-02-17 14:30:0017/02/2019 - 14:301 - 1 14:30:0014:30
2019-02-10 14:30:0010/02/2019 - 14:301 - 1 14:30:0014:30
2019-02-03 14:30:0003/02/2019 - 14:301 - 1 14:30:0014:30
2019-01-27 14:30:0027/01/2019 - 14:301 - 2 14:30:0014:30
2019-01-20 14:30:0020/01/2019 - 14:300 - 2 14:30:0014:30
2019-01-13 14:30:0013/01/2019 - 14:300 - 0 14:30:0014:30
2019-01-06 14:30:0006/01/2019 - 14:300 - 1 14:30:0014:30
2018-12-23 14:30:0023/12/2018 - 14:302 - 1 14:30:0014:30
2018-12-16 14:30:0016/12/2018 - 14:301 - 2 14:30:0014:30
2018-12-12 14:30:0012/12/2018 - 14:303 - 0 14:30:0014:30
2018-12-09 14:30:0009/12/2018 - 14:301 - 3 14:30:0014:30
2018-12-02 14:30:0002/12/2018 - 14:300 - 2 14:30:0014:30
2018-11-25 14:30:0025/11/2018 - 14:303 - 0 14:30:0014:30
2018-11-18 14:30:0018/11/2018 - 14:301 - 0 14:30:0014:30
2018-11-14 14:30:0014/11/2018 - 14:300 - 0 14:30:0014:30
2018-11-11 14:30:0011/11/2018 - 14:300 - 1 14:30:0014:30
2018-11-04 14:30:0004/11/2018 - 14:302 - 1 14:30:0014:30
2018-10-28 14:30:0028/10/2018 - 14:302 - 2 14:30:0014:30
2018-10-21 15:00:0021/10/2018 - 15:000 - 0 15:00:0015:00
2018-10-14 15:00:0014/10/2018 - 15:000 - 0 15:00:0015:00
2018-10-07 15:00:0007/10/2018 - 15:001 - 1 15:00:0015:00
2018-09-30 15:00:0030/09/2018 - 15:001 - 0 15:00:0015:00
2018-09-23 15:00:0023/09/2018 - 15:000 - 0 15:00:0015:00
2018-09-16 15:00:0016/09/2018 - 15:000 - 0 15:00:0015:00
2018-05-06 15:00:0006/05/2018 - 15:001 - 0 15:00:0015:00
2018-04-29 15:00:0029/04/2018 - 15:000 - 3 15:00:0015:00
2018-04-22 15:00:0022/04/2018 - 15:001 - 2 15:00:0015:00
2018-04-15 15:00:0015/04/2018 - 15:004 - 4 15:00:0015:00
2018-04-08 15:00:0008/04/2018 - 15:001 - 3 15:00:0015:00
2018-03-29 15:00:0029/03/2018 - 15:001 - 0 15:00:0015:00
2018-03-25 15:00:0025/03/2018 - 15:002 - 0 15:00:0015:00
2018-03-18 14:30:0018/03/2018 - 14:301 - 0 14:30:0014:30
2018-03-04 14:30:0004/03/2018 - 14:301 - 1 14:30:0014:30
2018-02-25 14:30:0025/02/2018 - 14:303 - 3 14:30:0014:30
2018-02-18 14:30:0018/02/2018 - 14:300 - 0 14:30:0014:30
2018-02-11 14:30:0011/02/2018 - 14:303 - 0 14:30:0014:30
2018-02-04 14:30:0004/02/2018 - 14:301 - 0 14:30:0014:30
2018-01-28 14:30:0028/01/2018 - 14:301 - 2 14:30:0014:30
2018-01-21 14:30:0021/01/2018 - 14:302 - 1 14:30:0014:30
2018-01-14 14:30:0014/01/2018 - 14:300 - 0 14:30:0014:30
2018-01-07 14:30:0007/01/2018 - 14:301 - 0 14:30:0014:30
2017-12-17 14:30:0017/12/2017 - 14:301 - 0 14:30:0014:30
2017-12-10 14:30:0010/12/2017 - 14:302 - 1 14:30:0014:30
2017-12-03 14:30:0003/12/2017 - 14:303 - 0 14:30:0014:30
2017-11-26 14:30:0026/11/2017 - 14:301 - 1 14:30:0014:30
2017-11-19 14:30:0019/11/2017 - 14:303 - 1 14:30:0014:30
2017-11-12 14:30:0012/11/2017 - 14:302 - 4 14:30:0014:30
2017-11-05 14:30:0005/11/2017 - 14:303 - 1 14:30:0014:30
2017-11-01 14:30:0001/11/2017 - 14:302 - 3 14:30:0014:30
2017-10-29 14:30:0029/10/2017 - 14:303 - 1 14:30:0014:30
2017-10-22 15:00:0022/10/2017 - 15:003 - 3 15:00:0015:00
2017-10-15 15:00:0015/10/2017 - 15:001 - 1 15:00:0015:00
2017-10-08 15:00:0008/10/2017 - 15:002 - 2 15:00:0015:00
2017-10-01 15:00:0001/10/2017 - 15:002 - 2 15:00:0015:00
2017-09-24 15:00:0024/09/2017 - 15:001 - 0 15:00:0015:00
2017-09-17 15:00:0017/09/2017 - 15:002 - 1 15:00:0015:00
2017-09-10 15:00:0010/09/2017 - 15:003 - 1 15:00:0015:00
2017-09-03 16:00:0003/09/2017 - 16:001 - 2 16:00:0016:00